Location: Nied?wied?
(53.3665°N, 14.8184°E)
Time: 18:34:44
(UTC+00:00)

ISS - Pass Details

Date: 15 May 2021
Orbit: 417 x 422 km, 51.6° (Epoch: 14 June)

Event Time Altitude Azimuth Distance (km) Brightness Sun altitude
Rises 21:38:14 0° 247° (WSW) 2,363 0.0 -15.6°
Reaches altitude 10° 21:40:21 10° 242° (WSW) 1,501 -1.0 -15.7°
Maximum altitude 21:43:38 51° 166° (SSE) 538 -3.7 -15.8°
Drops below altitude 10° 21:46:56 10° 89° (E) 1,508 -1.1 -16.0°
Sets 21:49:04 0° 84° (E) 2,375 0.0 -16.1°
